Location: Augustenthal
(51.7167°N, 10.2833°E)
Time: 09:05:47
(UTC+00:00)

Cosmos 1862 Rocket - Pass Details

Date: 18 May 2021
Orbit: 604 x 633 km, 82.5° (Epoch: 15 June)

Event Time Altitude Azimuth Distance (km) Brightness Sun altitude
Exits shadow 20:54:15 18° 157° (SSE) 1,508 4.9 -12.2°
Maximum altitude 20:57:08 43° 93° (E) 860 4.0 -12.4°
Drops below altitude 10° 21:01:14 10° 22° (NNE) 1,967 6.6 -12.8°
Sets 21:03:32 0° 16° (NNE) 2,878 7.7 -12.9°
